Location: Rounton
(54.4000°N, 1.3500°W)
Time: 11:36:47
(UTC+01:00)

Vanguard 1 - Pass Details

Date: 03 March 2024
Orbit: 653 x 3825 km, 34.2° (Epoch: 22 April)

Event Time Altitude Azimuth Distance (km) Brightness Sun altitude
Rises 21:42:04 0° 258° (WSW) 5,596 14.4 -32.8°
Reaches altitude 10° 21:45:42 10° 249° (WSW) 4,990 13.9 -33.2°
Maximum altitude 21:58:48 34° 192° (SSW) 4,450 13.0 -34.5°
Enters shadow 22:00:47 33° 182° (S) 4,599 13.0 -34.7°
